CW9476 Weather Reports


Display with metric or nautical units.
time (UTC)temp
F
wind
direction
speed
MPH
gust
MPH
rain 1hr
in
rain 24hr
in
rain mn
in
humidity
%
barometer
mb
20240529051540 56 340 0.0 0.0 0.00 0.02 0.00 93 1012.2
20240529051040 56 337 0.0 0.0 0.00 0.02 0.00 93 1012.1
20240529050540 56 337 0.0 1.0 0.00 0.02 0.00 93 1012.2
20240529050040 56 337 0.0 1.0 0.00 0.02 0.00 93 1012.2
20240529045540 56 337 0.0 1.0 0.00 0.02 0.00 93 1012.4
20240529045040 56 337 0.0 0.0 0.00 0.02 0.00 93 1012.4
20240529044040 56 337 0.0 1.0 0.00 0.02 0.00 93 1012.5
20240529043540 56 337 0.0 1.0 0.00 0.02 0.00 93 1012.4
20240529043040 56 337 0.0 0.0 0.00 0.02 0.00 93 1012.4
20240529042540 56 337 0.0 0.0 0.00 0.02 0.00 93 1012.3
20240529042040 56 337 0.0 0.0 0.00 0.02 0.00 93 1012.2
20240529041540 56 334 0.0 0.0 0.00 0.02 0.00 93 1012.3
20240529041040 56 334 0.0 0.0 0.00 0.02 0.00 93 1012.5
20240529040540 56 334 0.0 0.0 0.00 0.02 0.00 93 1012.2
20240529035540 56 334 0.0 0.0 0.00 0.02 0.02 93 1012.0
20240529035056 56 335 0.0 0.0 0.00 0.02 0.02 93 1012.1
20240529035014 57 335 0.0 0.0 0.00 0.02 0.02 93 1012.2
20240529034103 57 329 0.0 0.0 0.00 0.02 0.02 93 1012.1
20240529032737 57 329 0.0 0.0 0.00 0.02 0.02 93 1012.1
20240529025519 57 351 0.0 1.0 0.00 0.02 0.02 93 1012.0
20240529024145 57 329 0.0 0.0 0.00 0.02 0.02 93 1012.0
20240529021550 57 325 0.0 1.0 0.00 0.02 0.02 93 1011.7
20240529015414 57 341 0.0 0.0 0.00 0.04 0.02 92 1011.5
20240529014044 57 341 0.0 1.0 0.00 0.04 0.02 92 1011.2
20240529012748 58 341 0.0 1.0 0.00 0.04 0.02 92 1011.2
20240529011400 58 324 0.0 1.0 0.00 0.04 0.02 91 1011.1
20240529005737 58 324 0.0 0.0 0.00 0.04 0.02 91 1011.2
20240529004204 58 330 0.0 0.0 0.01 0.04 0.02 91 1010.9
20240529001341 58 351 0.0 2.0 0.01 0.04 0.02 89 1011.0
20240529000129 59 308 0.0 0.0 0.01 0.04 0.02 86 1011.2
20240528234605 59 308 0.0 0.0 0.01 0.04 0.02 85 1011.4
20240528234051 60 324 0.0 3.0 0.00 0.03 0.01 81 1011.5
20240528232720 61 329 1.0 2.0 0.00 0.03 0.01 81 1011.5
20240528232251 61 319 1.0 4.0 0.00 0.03 0.01 81 1011.2
20240528231051 61 5 0.0 3.0 0.00 0.03 0.01 80 1011.1
20240528225844 62 319 2.0 3.0 0.00 0.03 0.01 77 1010.6
20240528224338 62 298 1.0 3.0 0.00 0.03 0.01 77 1010.7
20240528223039 62 323 1.0 3.0 0.00 0.03 0.01 77 1010.4
20240528222539 63 309 1.0 6.0 0.00 0.03 0.01 77 1010.5
20240528222039 63 285 0.0 6.0 0.00 0.03 0.01 76 1010.4
20240528221539 63 292 1.0 6.0 0.00 0.03 0.01 75 1010.5
20240528221039 63 339 2.0 8.0 0.00 0.03 0.01 74 1010.4
20240528220539 64 343 2.0 8.0 0.00 0.03 0.01 73 1010.3
20240528220038 64 319 1.0 4.0 0.00 0.03 0.01 72 1010.1
20240528215539 65 331 0.0 7.0 0.00 0.03 0.01 70 1010.0
20240528215039 66 20 1.0 8.0 0.00 0.03 0.01 69 1009.9
20240528214539 68 335 0.0 9.0 0.00 0.03 0.01 67 1009.8
20240528214038 69 351 2.0 9.0 0.00 0.03 0.01 64 1009.7
20240528213538 71 30 3.0 3.0 0.00 0.03 0.01 61 1009.2
20240528213039 71 348 0.0 5.0 0.00 0.03 0.01 61 1009.0
20240528212538 72 84 0.0 5.0 0.00 0.03 0.01 60 1008.9
20240528212038 72 294 1.0 5.0 0.00 0.03 0.01 60 1008.9
20240528211538 71 28 1.0 7.0 0.00 0.03 0.01 61 1008.7
20240528211038 71 347 4.0 7.0 0.00 0.03 0.01 62 1008.7
20240528210538 71 229 2.0 4.0 0.00 0.03 0.01 61 1008.6
20240528210038 72 103 0.0 4.0 0.00 0.03 0.01 61 1008.8
20240528205538 72 110 1.0 4.0 0.00 0.03 0.01 62 1008.8
20240528205039 72 11 0.0 6.0 0.00 0.03 0.01 62 1008.8
20240528204538 72 333 1.0 6.0 0.00 0.03 0.01 60 1008.8
20240528204038 73 109 3.0 4.0 0.00 0.03 0.01 61 1008.9
20240528203538 72 153 0.0 5.0 0.00 0.03 0.01 60 1008.8
20240528203038 72 5 1.0 5.0 0.00 0.03 0.01 61 1008.9
20240528202538 72 232 0.0 8.0 0.00 0.03 0.01 61 1008.8
20240528202038 72 148 2.0 8.0 0.00 0.04 0.01 60 1008.8
20240528201538 72 107 2.0 4.0 0.00 0.05 0.01 59 1008.7
20240528201038 73 223 1.0 4.0 0.00 0.06 0.01 61 1008.9
20240528200538 73 293 2.0 4.0 0.00 0.07 0.01 59 1009.0
20240528200038 73 294 1.0 3.0 0.00 0.08 0.01 59 1009.0
20240528195538 73 36 1.0 6.0 0.00 0.08 0.01 61 1009.0
20240528195038 73 46 0.0 6.0 0.00 0.08 0.01 62 1009.1
20240528194538 72 94 1.0 4.0 0.00 0.09 0.01 58 1009.0
20240528194038 73 289 1.0 8.0 0.00 0.09 0.01 59 1009.0
20240528193538 72 136 3.0 8.0 0.00 0.11 0.01 59 1009.0
20240528193038 72 78 2.0 8.0 0.00 0.16 0.01 61 1009.1
20240528192538 72 309 0.0 7.0 0.00 0.22 0.01 62 1009.0
20240528192038 72 82 4.0 7.0 0.00 0.29 0.01 62 1009.1
20240528191538 72 250 1.0 8.0 0.00 0.35 0.01 61 1009.0
20240528191038 72 204 0.0 8.0 0.00 0.41 0.01 61 1009.1
20240528190538 71 244 2.0 6.0 0.00 0.47 0.01 65 1009.1
20240528190038 71 131 0.0 6.0 0.00 0.54 0.01 63 1009.0
20240528185538 70 100 1.0 4.0 0.00 0.60 0.01 66 1009.2
20240528185037 70 29 1.0 4.0 0.00 0.67 0.01 66 1009.3
20240528183039 71 214 1.0 9.0 0.00 0.72 0.01 65 1009.6
20240528182538 70 18 0.0 6.0 0.00 0.72 0.01 67 1009.5
20240528182038 70 94 1.0 3.0 0.00 0.72 0.01 70 1009.6
20240528181538 69 306 0.0 2.0 0.00 0.72 0.01 72 1009.5
20240528181037 69 266 0.0 2.0 0.00 0.72 0.01 72 1009.5
20240528180538 69 107 0.0 2.0 0.00 0.72 0.01 69 1009.6
20240528180038 69 44 1.0 2.0 0.00 0.72 0.01 69 1009.7
20240528175537 69 28 0.0 2.0 0.00 0.72 0.01 68 1009.8
20240528175037 70 138 0.0 3.0 0.00 0.72 0.01 66 1009.7
20240528173037 70 84 2.0 5.0 0.00 0.72 0.01 65 1009.5
20240528172538 70 59 2.0 5.0 0.00 0.72 0.01 65 1009.6
20240528172037 70 106 3.0 3.0 0.00 0.72 0.01 70 1009.6
20240528171538 70 105 1.0 3.0 0.00 0.72 0.01 69 1009.5
20240528171037 70 126 1.0 4.0 0.00 0.72 0.01 66 1009.5
20240528170537 70 121 2.0 4.0 0.00 0.72 0.01 68 1009.6
20240528170037 70 46 1.0 4.0 0.00 0.72 0.01 67 1009.7
20240528165537 71 278 1.0 4.0 0.00 0.72 0.01 64 1009.6
20240528165037 71 213 0.0 4.0 0.00 0.72 0.01 63 1009.6
20240528164537 72 340 1.0 4.0 0.00 0.72 0.01 66 1009.6
20240528163537 70 5 0.0 3.0 0.00 0.72 0.01 69 1009.4
20240528162537 69 312 1.0 4.0 0.00 0.72 0.01 71 1009.3
20240528162037 69 138 0.0 3.0 0.00 0.72 0.01 68 1009.2
20240528161537 68 247 1.0 3.0 0.00 0.72 0.01 69 1009.2
20240528161037 69 19 0.0 2.0 0.00 0.72 0.01 70 1009.3
20240528160537 69 32 0.0 2.0 0.00 0.72 0.01 69 1009.2
20240528160037 69 18 0.0 4.0 0.00 0.72 0.01 71 1009.2
20240528155037 70 322 1.0 5.0 0.00 0.72 0.01 66 1009.1
20240528154537 70 360 0.0 5.0 0.00 0.72 0.01 69 1009.1
20240528154037 70 110 2.0 4.0 0.00 0.72 0.01 70 1009.2
20240528153537 69 284 1.0 4.0 0.00 0.72 0.01 72 1009.1
20240528153037 68 338 2.0 4.0 0.00 0.72 0.01 71 1009.1
20240528152037 68 263 0.0 4.0 0.00 0.72 0.01 72 1009.0
20240528151537 69 163 1.0 6.0 0.00 0.72 0.01 70 1009.0
20240528151037 68 201 1.0 6.0 0.00 0.72 0.01 71 1009.0
20240528150037 67 235 0.0 4.0 0.00 0.72 0.01 72 1008.8
20240528145537 67 114 3.0 4.0 0.00 0.72 0.01 71 1008.7
20240528144537 68 120 0.0 6.0 0.00 0.72 0.01 71 1008.9
20240528144037 69 133 1.0 5.0 0.00 0.72 0.01 71 1008.9
20240528143537 69 231 3.0 4.0 0.01 0.72 0.01 72 1008.9
20240528143037 68 5 0.0 3.0 0.01 0.72 0.01 72 1008.9
20240528142537 68 35 1.0 3.0 0.01 0.72 0.01 72 1008.8
20240528141037 67 86 0.0 7.0 0.01 0.72 0.01 74 1008.6
20240528140537 68 268 0.0 4.0 0.01 0.72 0.01 75 1008.7
20240528140037 67 93 0.0 4.0 0.01 0.72 0.01 73 1008.6
20240528135537 67 129 1.0 4.0 0.01 0.72 0.01 74 1008.6
20240528135037 67 136 1.0 4.0 0.01 0.72 0.01 73 1008.6
20240528134537 67 27 0.0 3.0 0.01 0.72 0.01 77 1008.6
20240528134037 66 26 1.0 3.0 0.01 0.72 0.01 79 1008.6
20240528133536 67 265 1.0 3.0 0.00 0.71 0.00 80 1008.7
20240528133037 66 201 0.0 3.0 0.00 0.71 0.00 80 1008.7
20240528132537 65 342 0.0 4.0 0.00 0.71 0.00 80 1008.6
20240528132036 65 61 1.0 4.0 0.00 0.71 0.00 81 1008.6
20240528131536 65 221 0.0 4.0 0.00 0.71 0.00 82 1008.8
20240528131037 65 227 1.0 4.0 0.00 0.71 0.00 83 1008.9
20240528130537 64 128 0.0 3.0 0.00 0.71 0.00 85 1008.9
20240528130037 64 281 0.0 3.0 0.00 0.71 0.00 87 1008.8
20240528125536 63 97 0.0 0.0 0.00 0.71 0.00 89 1008.9
20240528125036 63 57 0.0 0.0 0.00 0.71 0.00 91 1008.8
20240528124536 63 268 0.0 0.0 0.00 0.71 0.00 92 1008.8
20240528124036 62 325 0.0 1.0 0.00 0.71 0.00 93 1008.9
20240528123536 62 105 0.0 1.0 0.00 0.71 0.00 94 1008.9
20240528123036 62 59 0.0 2.0 0.00 0.71 0.00 95 1008.9
20240528122536 61 30 0.0 2.0 0.00 0.71 0.00 95 1008.9
20240528122036 61 80 1.0 2.0 0.00 0.71 0.00 95 1008.8
20240528121536 61 184 0.0 3.0 0.00 0.71 0.00 95 1008.9
20240528121036 60 262 1.0 3.0 0.00 0.71 0.00 95 1008.9
20240528120536 60 5 0.0 1.0 0.00 0.71 0.00 96 1008.8
20240528120036 60 230 0.0 1.0 0.00 0.71 0.00 96 1008.8
20240528115536 60 230 0.0 1.0 0.00 0.71 0.00 96 1008.8
20240528115036 60 304 0.0 1.0 0.00 0.71 0.00 96 1008.8
20240528114536 60 304 0.0 1.0 0.00 0.71 0.00 96 1008.7
20240528114036 59 306 0.0 2.0 0.00 0.71 0.00 96 1008.6
20240528113536 59 306 0.0 2.0 0.00 0.71 0.00 96 1008.6
20240528113036 59 306 1.0 2.0 0.00 0.71 0.00 96 1008.6
20240528112536 59 235 0.0 1.0 0.00 0.71 0.00 96 1008.5
20240528112036 59 240 0.0 1.0 0.00 0.71 0.00 96 1008.5
20240528111536 59 240 0.0 1.0 0.00 0.71 0.00 96 1008.4
20240528111036 59 236 0.0 1.0 0.00 0.71 0.00 96 1008.4
20240528110536 59 267 0.0 1.0 0.00 0.71 0.00 96 1008.5
20240528110036 59 318 0.0 1.0 0.00 0.71 0.00 96 1008.5
20240528105536 59 323 0.0 1.0 0.00 0.71 0.00 96 1008.4
20240528105036 59 324 0.0 1.0 0.00 0.71 0.00 96 1008.4
20240528104536 59 17 0.0 1.0 0.00 0.71 0.00 96 1008.1
20240528103036 59 232 0.0 1.0 0.00 0.71 0.00 96 1008.1
20240528102536 59 120 0.0 1.0 0.00 0.71 0.00 96 1008.0
20240528102036 59 109 0.0 2.0 0.00 0.71 0.00 96 1007.9
20240528101536 59 110 0.0 3.0 0.00 0.71 0.00 96 1007.8
20240528101036 59 176 0.0 3.0 0.00 0.71 0.00 96 1007.8
20240528100036 59 89 1.0 1.0 0.00 0.71 0.00 96 1007.6
20240528095536 59 306 0.0 0.0 0.00 0.71 0.00 96 1007.5
20240528095036 59 316 0.0 2.0 0.00 0.71 0.00 96 1007.4
20240528094536 59 316 0.0 2.0 0.00 0.71 0.00 96 1007.4
20240528094036 60 92 0.0 0.0 0.00 0.71 0.00 96 1007.5
20240528093536 60 99 0.0 0.0 0.00 0.71 0.00 96 1007.5
20240528093036 60 99 0.0 0.0 0.00 0.71 0.00 96 1007.3
20240528092035 60 99 0.0 1.0 0.00 0.71 0.00 96 1007.0
20240528091536 60 99 0.0 1.0 0.00 0.71 0.00 96 1007.1
20240528091035 61 107 0.0 0.0 0.00 0.71 0.00 96 1007.0
20240528090536 61 140 0.0 0.0 0.00 0.71 0.00 96 1006.8
20240528090036 61 140 0.0 0.0 0.00 0.71 0.00 96 1006.9
20240528085535 60 140 0.0 0.0 0.00 0.71 0.00 96 1006.7
20240528085036 61 140 0.0 0.0 0.00 0.71 0.00 96 1006.8
20240528084035 61 98 0.0 0.0 0.00 0.71 0.00 96 1006.7
20240528083536 60 98 0.0 0.0 0.00 0.71 0.00 96 1006.6
20240528083036 61 98 0.0 0.0 0.00 0.71 0.00 96 1006.7
20240528082535 61 98 0.0 0.0 0.00 0.71 0.00 96 1006.6
20240528082036 60 98 0.0 0.0 0.00 0.71 0.00 96 1006.4
20240528081535 60 98 0.0 0.0 0.00 0.71 0.00 96 1006.3
20240528081036 60 98 0.0 0.0 0.00 0.71 0.00 96 1006.3
20240528080535 60 98 0.0 0.0 0.00 0.71 0.00 96 1006.2
20240528080035 60 98 0.0 0.0 0.00 0.71 0.00 96 1006.2
20240528075535 60 98 0.0 0.0 0.00 0.71 0.00 96 1006.1
20240528075035 60 98 0.0 0.0 0.00 0.71 0.00 96 1006.1
20240528074535 60 98 0.0 2.0 0.00 0.71 0.00 96 1005.9
20240528073035 60 103 0.0 0.0 0.00 0.71 0.00 96 1006.1
20240528072035 60 103 0.0 0.0 0.00 0.71 0.00 96 1006.2
20240528071535 60 103 0.0 0.0 0.00 0.71 0.00 96 1006.3
20240528071035 60 103 0.0 0.0 0.00 0.71 0.00 96 1006.4
20240528070535 60 103 0.0 0.0 0.00 0.71 0.00 96 1006.4
20240528070035 60 103 0.0 0.0 0.00 0.71 0.00 96 1006.4
20240528065535 60 103 0.0 1.0 0.00 0.71 0.00 96 1006.5
20240528065035 60 103 0.0 1.0 0.00 0.71 0.00 96 1006.5
20240528064535 60 103 0.0 0.0 0.00 0.71 0.00 96 1006.4
20240528064035 60 103 0.0 0.0 0.00 0.71 0.00 96 1006.5
20240528063535 61 103 0.0 0.0 0.00 0.71 0.00 96 1006.4
20240528063035 61 103 0.0 0.0 0.00 0.71 0.00 96 1006.5
20240528062035 61 103 0.0 0.0 0.00 0.71 0.00 96 1006.4
20240528061535 61 103 0.0 0.0 0.00 0.71 0.00 96 1006.3
20240528061035 61 103 0.0 1.0 0.00 0.71 0.00 96 1006.3
20240528060535 61 103 0.0 1.0 0.00 0.71 0.00 96 1006.2
20240528060035 61 110 0.0 0.0 0.00 0.71 0.00 96 1006.5
20240528055535 61 110 0.0 0.0 0.00 0.71 0.00 96 1006.5
20240528055035 61 110 0.0 0.0 0.00 0.71 0.00 96 1006.5
20240528054535 61 110 0.0 0.0 0.00 0.71 0.00 96 1006.5
20240528054035 61 110 0.0 0.0 0.00 0.71 0.00 96 1006.5
20240528053035 61 110 0.0 0.0 0.00 0.71 0.00 96 1006.6
20240528052535 61 110 0.0 0.0 0.00 0.71 0.00 96 1006.6
20240528052035 61 110 0.0 2.0 0.00 0.71 0.00 96 1006.7